Location: Bonnesvalyn
(49.1218°N, 3.3177°E)
Time: 08:00:52
(UTC+00:00)

Resurs 01 Rocket - Pass Details

Date: 09 February 2023
Orbit: 632 x 643 km, 97.9° (Epoch: 30 March)

Event Time Altitude Azimuth Distance (km) Brightness Sun altitude
Exits shadow 19:39:58 17° 1° (N) 1,625 3.7 -27.1°
Drops below altitude 10° 19:41:04 10° 356° (N) 2,053 4.3 -27.3°
Sets 19:43:20 0° 351° (N) 2,968 5.3 -27.6°
